Location: Hilton Head Island
(32.2163°N, 80.7526°W)
Time: 20:30:06
(UTC-04:00)

Tiros 1 despin weight - Pass Details

Date: 22 February 2026
Orbit: 556 x 593 km, 48.2° (Epoch: 9 March)

Event Time Altitude Azimuth Distance (km) Brightness Sun altitude
Rises 13:40:00 0° 256° (WSW) 2,755 ? 45.2°
Reaches altitude 10° 13:42:29 10° 268° (W) 1,853 ? 44.9°
Maximum altitude 13:46:13 29° 329° (NNW) 1,032 ? 44.6°
Drops below altitude 10° 13:49:56 10° 31° (NNE) 1,842 ? 44.3°
Sets 13:52:24 0° 43° (NE) 2,736 ? 44.1°
